Hourly Data Report for October 02, 2017

All times are specified in Local Standard Time (LST). Add 1 hour to adjust for Daylight Saving Time where and when it is observed.

SYDNEY A
NOVA SCOTIA

46°09'41.000" N
60°02'53.000" W
61.90 m
8205701
71707
YQY

Download Data

Hourly Data (October 2017)
Hourly Data Report for October 2, 2017
Temp Definition
°C
Dew Point Temp Definition
°C
Rel Hum Definition
%
Wind Dir Definition
10's deg

Wind Spd Definition
km/h
Visibility Definition
km
Stn Press Definition
kPa
Hmdx Definition


Wind Chill Definition


Weather Definition


TIME
00:00 Legend Double Dagger 9.8 6.3 79 29 13 24.1 100.94     LegendNANA
01:00 Legend Double Dagger 6.7 5.5 92 25 11 24.1 101.00     LegendNANA
02:00 Legend Double Dagger 6.1 5.0 93 24 8 24.1 100.96     Clear
03:00 Legend Double Dagger 6.2 5.3 94 24 9 24.1 100.95     LegendNANA
04:00 Legend Double Dagger 5.7 5.2 96 26 9 24.1 101.02     LegendNANA
05:00 Legend Double Dagger 6.0 5.6 97 27 9 24.1 101.08     Mainly Clear
06:00 Legend Double Dagger 8.9 8.2 95 31 12 22.5 101.17     LegendNANA
07:00 Legend Double Dagger 11.1 8.1 82 33 10 24.1 101.23     LegendNANA
08:00 Legend Double Dagger 12.2 6.7 69 35 16 24.1 101.28     Mostly Cloudy
09:00 Legend Double Dagger 12.9 7.1 68 2 27 24.1 101.32     LegendNANA
10:00 Legend Double Dagger 12.6 5.0 59 36 39 24.1 101.37     LegendNANA
11:00 Legend Double Dagger 11.4 3.6 59 36 42 24.1 101.40     Mainly Clear
12:00 Legend Double Dagger 10.9 3.7 61 36 34 24.1 101.47     LegendNANA
13:00 Legend Double Dagger 10.4 3.8 64 34 35 24.1 101.48     LegendNANA
14:00 Legend Double Dagger 10.2 3.3 62 35 44 24.1 101.53     Cloudy
15:00 Legend Double Dagger 9.8 3.9 66 35 35 24.1 101.58     LegendNANA
16:00 Legend Double Dagger 9.5 3.4 66 36 39 24.1 101.62     LegendNANA
17:00 Legend Double Dagger 9.2 3.6 68 36 36 24.1 101.71     Mostly Cloudy
18:00 Legend Double Dagger 9.0 3.2 67 36 44 24.1 101.81     LegendNANA
19:00 Legend Double Dagger 9.0 3.7 69 1 46 24.1 101.87     LegendNANA
20:00 Legend Double Dagger 8.9 4.4 73 36 44 24.1 101.94     Cloudy
21:00 Legend Double Dagger 9.4 3.4 66 2 42 24.1 102.00     LegendNANA
22:00 Legend Double Dagger 9.3 2.5 62 2 47 24.1 102.05     LegendNANA
23:00 Legend Double Dagger 9.4 3.3 66 2 34 24.1 102.08     Cloudy

Notes on Data Quality.

Legend

  • E = Estimated
  • M = Missing
  • NA = Not Available
  • ‡ = Partner data that is not subject to review by the National Climate Archives
Date modified: